Regional Weather Roundup
Issued by NWS

Home | Current Version | Previous Version | Graphics & Text | Print | Product List | Glossary Off
Versions: 1 2 3 4 5 6 7 8 9 10 11 12 13 14 15 16 17 18 19 20 21 22 23 24 25 26 27 28 29 30 31 32 33 34 35 36 37 38 39 40 41 42 43 44 45 46 47 48 49 50

000
ASUS43 KMPX 031610
RWRMN
WEATHER ROUNDUP FOR MINNESOTA
NATIONAL WEATHER SERVICE TWIN CITIES/CHANHASSEN MN
1100 AM CDT WED JUN 03 2015


NOTE: "FAIR" INDICATES FEW OR NO CLOUDS BELOW 12,000 FEET WITH NO
SIGNIFICANT WEATHER AND/OR OBSTRUCTIONS TO VISIBILITY. N/A MEANS
CURRENT SKY AND/OR WEATHER CONDITIONS ARE NOT AVAILABLE.

MNZ060>063-068>070-031700-
   Twin Cities Metro

CITY           SKY/WX    TMP DP  RH WIND       PRES   REMARKS
TWIN CITIES    CLOUDY    65  58  78 S8        29.83F
ST PAUL        CLOUDY    66  59  78 SE10      29.84F
CRYSTAL        CLOUDY    68  58  70 VRB7      29.83S
BLAINE         CLOUDY    70  59  68 SE12      29.84F
LAKEVILLE      CLOUDY    64  57  77 S9        29.84R
EDEN PRAIRIE   CLOUDY    65  59  81 S14       29.84R
SOUTH ST PAUL  CLOUDY    66  58  76 SE5       29.83F
LAKE ELMO      FAIR      64  59  82 SE6       29.85F
$$
MNZ001>005-007-008-013>017-022>024-027-028-031700-
   Northwest Minnesota

CITY           SKY/WX    TMP DP  RH WIND       PRES   REMARKS
BEMIDJI        CLOUDY    60  60  97 E7        29.81R FOG
HALLOCK        CLOUDY    57  52  82 N9        29.86R
ROSEAU         CLOUDY    59  54  82 NE15      29.85S
WARROAD        CLOUDY    57  54  88 NE10G18   29.86S
THIEF RVR FALL CLOUDY    64  59  82 NE8       29.82R
CROOKSTON      CLOUDY    64  61  88 N8        29.81R
FOSSTON        CLOUDY    66  64  94 CALM      29.80R
DETROIT LAKES  CLOUDY    61  61 100 SW3       29.81R FOG
MOORHEAD       CLOUDY    55  54  94 NW17      29.81R
PARK RAPIDS    CLOUDY    65  58  78 SE9       29.81R
MAHNOMEN       CLOUDY    64  61  89 SE3       29.79R
$$
MNZ006-009>011-018-025>026-031700-
   North Central Minnesota

CITY           SKY/WX    TMP DP  RH WIND       PRES   REMARKS
BAUDETTE       CLOUDY    64  58  80 NE8       29.83S
FLAG ISLAND    PTSUNNY   61  55  82 NE12G18   29.86R
INTL FALLS     CLOUDY    66  60  81 N6        29.84S
WASKISH        CLOUDY    68  61  77 E3        29.82R
BIG FORK       PTSUNNY   64  57  77 SE5       29.84R
LONGVILLE      CLOUDY    63  59  88 S7        29.83R
GRAND RAPIDS   CLOUDY    63  55  77 SE5       29.85R
CRANE LAKE     CLOUDY    64  61  88 CALM      29.87R
COOK           PTSUNNY   64  57  77 S7        29.86R
WALKER         CLOUDY    62  59  90 S6        29.81S
$$
MNZ012-019>021-037-031700-
   Northeast Minnesota

CITY           SKY/WX    TMP DP  RH WIND       PRES   REMARKS
DULUTH         CLOUDY    61  53  75 E9        29.87S
ELY            PTSUNNY   64  55  72 SW5       29.87S
HIBBING        CLOUDY    60  57  89 E5        29.86S
EVELETH        PTSUNNY   59  55  88 CALM      29.88R
DULUTH HARBOR  CLOUDY    50  48  93 E5        29.88R
TWO HARBORS    CLOUDY    66  57  72 SE3       29.86S
SILVER BAY     PTSUNNY   64  55  72 CALM      29.87S
GRAND MARAIS     N/A     50  43  77 E6        29.90R
G MARAIS ARPRT PTSUNNY   63  54  72 SW5       29.92R
$$
MNZ029>031-032-039>041-046>048-054>057-064-031700-
   West Central Minnesota

CITY           SKY/WX    TMP DP  RH WIND       PRES   REMARKS
FERGUS FALLS   CLOUDY    63  63 100 W12       29.81R FOG
WHEATON        CLOUDY    61  57  88 NW12G18   29.84R
MORRIS         FOG       63  63 100 NW9       29.83R VSB 1
ALEXANDRIA     CLOUDY    64  60  87 S9        29.84R
ELBOW LAKE     CLOUDY    61  61  99 NW7       29.82R FOG
WADENA         CLOUDY    66  61  82 S9        29.80S
GLENWOOD       LGT RAIN  63  61  94 N7        29.82F
APPLETON       RAIN      66  63  88 CALM      29.83R
BENSON         RAIN      63  61  94 W9        29.81F
ORTONVILLE     CLOUDY    66  63  88 NE7       29.83R
MADISON        CLOUDY    66  64  94 W6        29.83R
WILLMAR        TSTM      64  61  88 SW6       29.87R
$$
MNZ033>034-036-042>043-049>051-058-059-031700-
   Central Minnesota

CITY           SKY/WX    TMP DP  RH WIND       PRES   REMARKS
ST CLOUD       CLOUDY    65  58  78 SE9       29.81F
SAUK CENTRE    RAIN      61  60  96 NW5       29.81F
PAYNESVILLE    LGT RAIN  62  57  84 CALM      29.81S
AITKIN         CLOUDY    66  57  72 S7        29.82R
PINE RIVER     CLOUDY    63  57  82 S6        29.86R
BRAINERD       CLOUDY    65  59  81 S8        29.83R
STAPLES        CLOUDY    64  57  77 S7        29.82R
LONG PRAIRIE   CLOUDY    61  59  94 SE5       29.83S
LITTLE FALLS   RAIN      61  59  94 CALM      29.82F
LITCHFIELD     CLOUDY    64  61  88 S7        29.84R
BUFFALO        CLOUDY    64  57  78 SE7       29.84R
MAPLE LAKE     CLOUDY    66  60  80 SE5       29.84R
$$
MNZ037-044-045-052-053-031700-
   East Central Minnesota

CITY           SKY/WX    TMP DP  RH WIND       PRES   REMARKS
PRINCETON      CLOUDY    66  59  77 SE7       29.84S
MORA           CLOUDY    64  57  77 S8        29.86S
CAMBRIDGE      CLOUDY    68  55  64 S7        29.83S
RUSH CITY      CLOUDY    65  57  75 S6        29.86R
MOOSE LAKE     CLOUDY    64  55  72 S7        29.84R
HINCKLEY       CLOUDY    64  59  82 S9        29.86R
CLOQUET        CLOUDY    59  54  82 E6        29.86S
MCGREGOR       CLOUDY    64  59  82 S5        29.85R
$$
MNZ071>073-080-081-089-090-097-098-031700-
   Southwest Minnesota

CITY           SKY/WX    TMP DP  RH WIND       PRES   REMARKS
MONTEVIDEO     RAIN      64  63  94 NW7       29.82F
GRANITE FALLS  RAIN      64  62  93 E3        29.85R
CANBY          LGT RAIN  66  64  93 N13G21    29.80F
MARSHALL       CLOUDY    66  61  82 N17       29.79R
REDWOOD FALLS  TSTM      63  61  93 SW6       29.83R FOG
OLIVIA         TSTM      59  55  88 SW12      29.82R VSB 1
PIPESTONE      RAIN      68  61  77 NE5       29.83R
WINDOM         HVY RAIN  63  61  94 S3        29.84R VSB 1
WORTHINGTON    CLOUDY    63  61  94 NW13      29.83S
JACKSON        CLOUDY    66  61  82 S10       29.84R
TRACY          CLOUDY    66  64  94 NW9       29.81R
$$
MNZ065>067-074>077-082>085-091>093-031700-
   South Central Minnesota

CITY           SKY/WX    TMP DP  RH WIND       PRES   REMARKS
MANKATO        CLOUDY    63  57  82 S7        29.85R THUNDER
NEW ULM        CLOUDY    63  61  94 S12       29.82S
ST JAMES       CLOUDY    64  63  94 S13G18    29.83F
FAIRMONT       CLOUDY    64  55  72 S17       29.83S
GLENCOE        CLOUDY    66  61  83 S6        29.83R
FARIBAULT      CLOUDY    66  61  82 S9        29.86R
OWATONNA       CLOUDY    64  57  77 S9G16     29.86R
WASECA         TSTM      63  59  88 S16G22    29.88R VSB 3/4
ALBERT LEA     CLOUDY    64  57  77 S12G23    29.86F
$$
MNZ078>079-086>088-094>096-031700-
   Southeast Minnesota

CITY           SKY/WX    TMP DP  RH WIND       PRES   REMARKS
ROCHESTER      PTSUNNY   70  56  61 SE23      29.86F
RED WING       CLOUDY    66  57  72 SE14      29.83F
STANTON        CLOUDY    66  57  72 S15G28    29.81S
DODGE CENTER   CLOUDY    70  55  60 SE18      29.86S
WINONA         PTSUNNY   72  57  60 S6        29.91F
AUSTIN         LGT RAIN  66  57  72 S15G22    29.87R
PRESTON        PTSUNNY   67  55  65 S17       29.90F
$$
ABBREVIATIONS USED IN REMARKS
   TC - TEMPERATURES IN CELSIUS
  WCI - WIND CHILL INDEX
   HX - HEAT INDEX
  VSB - VISIBILITY
$$


USA.gov is the U.S. government's official web portal to all federal, state and local government web resources and services.